[[{"header":{"parameterUnit":"m.s-1","parameterCategory":1,"la1":30.2991,"la2":30.254,"lo1":-89.0895,"lo2":-89.0444,"dy":0.0017,"dx":0.0017,"nx":28,"ny":28,"refTime":"2024-04-14T03:00:00:Z","depth":0,"parameterNumber":2,"parameterNumberName":"U-component_of_WINDS"},"data":[0,0,0,0,0,0,0,0,0,0,0,0,0,0,0,0,0,0,0,0,0,0,0,0,0,0,0,0,0,0,0,0,0,0,0,0,0,0,0,0,0,0,0,0,0,0,0,0,0,0,0,0,0,0,0,0,0,0,2.1556,2.1557,0,2.1673,2.1674,2.1676,2.1703,2.1702,2.1701,2.1701,2.1818,2.1821,2.1825,0,0,0,0,0,0,0,0,0,0,0,0,0,2.135,2.1354,2.1556,2.1557,2.1558,2.1673,2.1674,2.1676,2.1703,2.1702,2.1701,2.17,2.1816,2.1821,2.1826,0,0,0,0,0,0,0,0,0,0,0,0,0,2.1451,2.1355,2.1555,2.1586,2.159,2.1673,2.1675,2.1676,2.1703,2.1702,2.1701,2.17,2.1815,2.1821,2.1826,2.1886,0,0,2.1844,2.1846,0,0,0,0,0,0,0,0,2.1445,2.1458,2.158,2.1584,2.1588,2.1672,2.1645,2.1747,2.1704,2.166,2.1701,2.1699,2.177,2.1779,2.1804,2.1891,2.1897,2.1844,2.1848,2.185,2.1852,0,0,0,0,0,0,0,2.1438,2.1453,2.1602,2.1582,2.1587,2.1592,2.1605,2.1664,2.172,2.1664,2.1666,2.168,2.1772,2.1798,2.1807,2.1898,2.1844,2.1849,2.1853,2.1855,2.2038,2.2039,0,0,0,0,0,0,2.1426,2.1447,2.1598,2.1605,2.1512,2.1597,2.1611,2.1646,2.172,2.173,2.1681,2.1681,2.1789,2.18,2.1811,2.1884,2.185,2.1856,2.1859,2.2037,2.2038,2.204,0,0,0,0,0,0,2.1422,2.1439,2.1593,2.1527,2.1547,2.1602,2.1641,2.1649,2.1676,2.1733,2.1742,2.1697,2.1789,2.1803,2.1867,2.1889,2.1858,2.1864,2.2035,2.2037,2.2039,2.2032,0,0,0,0,0,0,2.1416,2.1438,2.1462,2.1527,2.1551,2.1648,2.1642,2.1653,2.1686,2.1687,2.1751,2.176,2.1789,2.1858,2.1873,2.1896,2.1868,2.2033,2.2036,2.2038,2.203,2.2033,2.2036,0,0,0,0,0,2.1408,2.1455,2.1463,2.1481,2.1582,2.165,2.1663,2.1696,2.1688,2.1712,2.1748,2.1758,2.1884,2.1864,2.1881,2.1907,2.2032,2.2035,2.2038,2.2029,2.2033,2.2036,0,0,0,0,0,0,2.139,2.1464,2.1474,2.1544,2.159,2.1654,2.1686,2.1699,2.1748,2.1746,2.1784,2.1798,2.1859,2.189,2.1866,2.1967,2.1958,2.1964,2.1945,2.1949,2.1952,2.1943,2.1873,0,0,0,0,0,2.1394,2.1444,2.1506,2.1561,2.1584,2.1631,2.1661,2.1683,2.1732,2.1751,2.1792,2.1839,2.1889,2.1921,2.197,2.2035,2.2048,2.2061,2.2064,2.2066,2.207,2.2105,2.2111,2.205,2.205,2.205,0,0,2.1403,2.145,2.1479,2.1559,2.1597,2.1646,2.1647,2.17,2.1736,2.1759,2.1822,2.1853,2.1907,2.1971,2.2002,2.1999,2.209,2.207,2.2071,2.2075,2.2109,2.2114,2.2119,2.2052,2.2052,2.2051,0,0,2.1444,2.1485,2.1535,2.1574,2.1632,2.1663,2.1675,2.1737,2.1759,2.1822,2.184,2.1883,2.1969,2.2006,2.2037,2.209,2.2101,2.2105,2.2119,2.2153,2.2157,2.2162,2.2179,2.2185,2.211,2.211,2.211,0,2.1447,2.1523,2.1559,2.161,2.1644,2.1668,2.1717,2.1753,2.1824,2.1846,2.1841,2.1948,2.1987,2.2059,2.2072,2.2096,2.2109,2.2098,2.2154,2.2159,2.2163,2.218,2.2187,2.211,2.211,2.211,2.211,0,2.1523,2.1576,2.1609,2.1678,2.1715,2.1765,2.1806,2.184,2.1857,2.1887,2.1951,2.1997,2.2056,2.2075,2.2092,2.2149,2.2145,2.2147,2.2138,2.2169,2.2185,2.2192,2.211,2.211,2.211,2.211,0,0,2.1556,2.1644,2.1655,2.1686,2.1751,2.1792,2.1842,2.19,2.1927,2.1975,2.2016,2.2088,2.209,2.2124,2.2146,2.2175,2.2212,2.2173,2.2175,2.2177,2.2275,2.2272,2.2279,2.222,2.2221,2.2222,2.227,0,2.1604,2.1696,2.1729,2.1804,2.1851,2.1874,2.1918,2.1962,2.1991,2.2035,2.2067,2.2116,2.2116,2.2136,2.2166,2.2201,2.2232,2.2198,2.2257,2.2259,2.2242,2.2288,2.2285,2.2328,2.2276,2.2278,2.2278,0,2.1672,2.1722,2.1802,2.186,2.1881,2.192,2.1975,2.2016,2.2066,2.2085,2.2123,2.2142,2.2194,2.2182,2.2253,2.2229,2.2255,2.2275,2.2278,2.2283,2.227,2.2293,2.2343,2.2348,2.2289,2.2288,2.2288,0,2.1686,2.1772,2.1831,2.1857,2.1927,2.1953,2.1984,2.2032,2.2064,2.2111,2.2132,2.2184,2.2213,2.2252,2.2284,2.2273,2.2351,2.2343,2.2367,2.2366,2.2381,2.238,2.2434,2.24,2.24,2.24,2.24,0,2.1735,2.1783,2.1838,2.1874,2.1927,2.1963,2.2014,2.2046,2.2089,2.213,2.2153,2.219,2.2231,2.2274,2.2299,2.2353,2.2366,2.2381,2.2387,2.2378,2.2376,2.2395,2.2392,2.2402,2.2401,2.2401,2.2401,0,2.1759,2.1798,2.1863,2.1925,2.1941,2.1977,2.2029,2.2063,2.2094,2.2145,2.2159,2.2206,2.2257,2.2293,2.2359,2.2376,2.2433,2.2439,2.2416,2.2419,2.244,2.2437,2.2507,2.2518,2.2478,2.2478,2.2479,0,2.1787,2.1825,2.189,2.1919,2.195,2.1997,2.203,2.2066,2.2099,2.2158,2.2185,2.2238,2.2282,2.2362,2.2401,2.2451,2.2458,2.2479,2.2465,2.2455,2.2456,2.2453,2.2456,2.248,2.2481,2.2481,2.2481,0,2.1833,2.185,2.1897,2.1951,2.1989,2.2033,2.2077,2.2099,2.2143,2.2179,2.2232,2.2266,2.2333,2.2384,2.2437,2.2467,2.248,2.2485,2.2493,2.2484,2.2468,2.2475,2.242,2.2483,2.2483,2.2483,2.2483,2.2483,2.1859,2.1892,2.1943,2.1994,2.2031,2.2071,2.2106,2.2141,2.2186,2.2244,2.2262,2.2316,2.2363,2.2437,2.2467,2.2508,2.2507,2.2519,2.2522,2.2524,2.2522,2.2463,2.2518,2.2518,2.2518,2.2518,2.2518,0,2.1904,2.1938,2.1984,2.2045,2.2085,2.2096,2.2144,2.2176,2.2224,2.2267,2.231,2.237,2.2419,2.2462,2.2513,2.2538,2.2545,2.255,2.2548,2.2554,2.2522,2.2509,2.2543,2.2543,2.2543,2.2543,2.2543,2.2543,2.1932,2.1989,2.2012,2.2086,2.2119,2.2173,2.22,2.2236,2.227,2.2336,2.2378,2.2406,2.2448,2.2502,2.2547,2.2558,2.2575,2.2578,2.259,2.2559,2.2556,2.2553,2.2542,2.2582,2.2582,2.2619,2.2619,2.262]},{"header":{"parameterUnit":"m.s-1","parameterCategory":1,"la1":30.2991,"la2":30.254,"lo1":-89.0895,"lo2":-89.0444,"dy":0.0017,"dx":0.0017,"nx":28,"ny":28,"refTime":"2024-04-14T03:00:00:Z","depth":0,"parameterNumber":3,"parameterNumberName":"V-component_of_WINDS"},"data":[0,0,0,0,0,0,0,0,0,0,0,0,0,0,0,0,0,0,0,0,0,0,0,0,0,0,0,0,0,0,0,0,0,0,0,0,0,0,0,0,0,0,0,0,0,0,0,0,0,0,0,0,0,0,0,0,0,0,4.3645,4.3645,0,4.3624,4.3624,4.3624,4.3553,4.3551,4.3549,4.3548,4.3529,4.353,4.353,0,0,0,0,0,0,0,0,0,0,0,0,0,4.3624,4.3624,4.3645,4.3645,4.3644,4.3624,4.3624,4.3624,4.3553,4.3551,4.3549,4.3547,4.3528,4.3529,4.3531,0,0,0,0,0,0,0,0,0,0,0,0,0,4.3621,4.3625,4.3645,4.3607,4.3603,4.3625,4.3624,4.3624,4.3553,4.3551,4.3549,4.3546,4.3528,4.3529,4.3531,4.3588,0,0,4.3535,4.3536,0,0,0,0,0,0,0,0,4.3621,4.3622,4.3612,4.3609,4.3605,4.3589,4.3609,4.3612,4.3554,4.3572,4.3548,4.3545,4.3551,4.355,4.3552,4.3587,4.3587,4.3535,4.3536,4.3537,4.3537,0,0,0,0,0,0,0,4.3622,4.3622,4.3637,4.3612,4.3608,4.3591,4.3588,4.361,4.3575,4.357,4.3565,4.3564,4.3548,4.355,4.3551,4.3586,4.3535,4.3537,4.3538,4.3538,4.3667,4.367,0,0,0,0,0,0,4.3627,4.3623,4.3637,4.3636,4.3607,4.3593,4.359,4.3596,4.3575,4.3569,4.3566,4.356,4.3549,4.3549,4.355,4.3614,4.3537,4.3538,4.3539,4.3665,4.3668,4.3671,0,0,0,0,0,0,4.3627,4.3629,4.3638,4.3628,4.3628,4.3596,4.3604,4.3597,4.3599,4.3571,4.3565,4.3574,4.3547,4.3548,4.3579,4.3613,4.3539,4.354,4.3662,4.3666,4.3669,4.3746,0,0,0,0,0,0,4.3627,4.3629,4.3651,4.3629,4.3629,4.3668,4.3606,4.3599,4.3602,4.3595,4.3577,4.3572,4.3545,4.3577,4.358,4.3614,4.3542,4.3659,4.3664,4.3668,4.374,4.3751,4.3761,0,0,0,0,0,4.3626,4.3673,4.3652,4.3654,4.3655,4.367,4.367,4.3637,4.3605,4.3626,4.3608,4.3573,4.3609,4.3581,4.3584,4.3618,4.3656,4.3662,4.3668,4.3735,4.3749,4.3761,0,0,0,0,0,0,4.37,4.367,4.3646,4.3688,4.3682,4.3658,4.3683,4.3653,4.3657,4.365,4.361,4.3607,4.3643,4.3634,4.3603,4.3672,4.3627,4.3633,4.3677,4.369,4.3701,4.3702,4.3543,0,0,0,0,0,4.3722,4.3736,4.3709,4.3748,4.3747,4.3716,4.3721,4.3696,4.3689,4.3686,4.367,4.3665,4.3675,4.3682,4.369,4.3739,4.3733,4.3764,4.3775,4.3784,4.3789,4.3814,4.3826,4.369,4.369,4.3689,0,0,4.3766,4.3751,4.3762,4.3763,4.3755,4.3771,4.3714,4.3734,4.3745,4.3689,4.3717,4.3706,4.3697,4.3737,4.3754,4.373,4.3826,4.3791,4.3798,4.3799,4.3821,4.3834,4.3845,4.3693,4.3693,4.3692,0,0,4.3853,4.3844,4.3875,4.3869,4.3858,4.3837,4.3845,4.3825,4.3815,4.3843,4.3801,4.3815,4.3833,4.3828,4.3828,4.3914,4.3881,4.3918,4.3974,4.3998,4.4009,4.4018,4.4047,4.4059,4.3924,4.3924,4.3924,0,4.3909,4.3931,4.3895,4.3917,4.3918,4.3868,4.39,4.3895,4.3888,4.389,4.3864,4.3885,4.3876,4.3914,4.3935,4.3937,4.3944,4.3919,4.401,4.4019,4.4027,4.4055,4.4066,4.3929,4.3928,4.3928,4.3927,0,4.4,4.4016,4.4042,4.4035,4.404,4.4067,4.4035,4.4044,4.4019,4.4001,4.403,4.4017,4.4021,4.4028,4.4005,4.4063,4.4048,4.4017,4.397,4.4045,4.407,4.4081,4.3935,4.3933,4.3932,4.3931,0,0,4.4133,4.4106,4.4116,4.4112,4.4096,4.4108,4.4133,4.4135,4.4143,4.4141,4.416,4.4176,4.4147,4.4147,4.4122,4.4144,4.4212,4.4109,4.4108,4.4128,4.4273,4.4296,4.4309,4.4191,4.4192,4.4194,4.4274,0,4.4215,4.4254,4.4223,4.4268,4.4281,4.4234,4.4256,4.4249,4.4233,4.4243,4.4225,4.4237,4.4198,4.4198,4.4217,4.4199,4.424,4.4193,4.4207,4.4208,4.4209,4.4322,4.4347,4.4422,4.4284,4.4285,4.4286,0,4.4316,4.4316,4.4362,4.4343,4.4347,4.4367,4.4367,4.4377,4.4368,4.4355,4.4355,4.4325,4.4348,4.4303,4.4334,4.4303,4.4307,4.43,4.4302,4.4301,4.4251,4.4323,4.4446,4.4457,4.4302,4.4301,4.43,0,4.4406,4.4419,4.4447,4.4446,4.4424,4.4439,4.4431,4.442,4.4423,4.4424,4.4426,4.443,4.4431,4.4435,4.4407,4.4377,4.4441,4.4394,4.443,4.4431,4.4444,4.4444,4.4568,4.445,4.445,4.445,4.4449,0,4.45,4.453,4.4487,4.4505,4.4537,4.4501,4.4534,4.4521,4.4512,4.4526,4.4487,4.4501,4.4464,4.4475,4.4453,4.4481,4.4483,4.4473,4.4466,4.4475,4.4476,4.4476,4.447,4.4453,4.4452,4.4451,4.4451,0,4.4606,4.4579,4.4607,4.4585,4.458,4.4604,4.4585,4.46,4.4582,4.4601,4.4603,4.4575,4.4586,4.4558,4.4565,4.455,4.4591,4.4577,4.4593,4.4588,4.4626,4.4622,4.4753,4.4768,4.4642,4.4643,4.4645,0,4.4667,4.4689,4.4668,4.4675,4.4669,4.468,4.4683,4.4649,4.4654,4.4646,4.4662,4.467,4.4673,4.4693,4.4673,4.4678,4.4663,4.4709,4.4663,4.4672,4.4662,4.466,4.4662,4.4718,4.4719,4.472,4.4721,0,4.4778,4.4763,4.4769,4.477,4.4775,4.4775,4.4772,4.478,4.4743,4.4751,4.4761,4.4764,4.4771,4.4778,4.4779,4.4771,4.474,4.4736,4.4744,4.4753,4.4761,4.4756,4.4617,4.4733,4.4732,4.4731,4.473,4.473,4.4862,4.4879,4.4867,4.4874,4.4868,4.4866,4.4879,4.4863,4.487,4.4872,4.4852,4.4866,4.4857,4.4854,4.485,4.486,4.484,4.4852,4.4855,4.4858,4.4864,4.4761,4.4861,4.486,4.486,4.486,4.4859,0,4.497,4.4959,4.4967,4.4963,4.4969,4.494,4.4935,4.4942,4.4955,4.4948,4.4953,4.4964,4.4971,4.4952,4.4957,4.4969,4.4955,4.4971,4.4969,4.4968,4.4883,4.4875,4.4982,4.4982,4.4982,4.4982,4.4982,4.4982,4.5026,4.5052,4.5036,4.5059,4.5049,4.5061,4.5061,4.5059,4.5054,4.5068,4.5073,4.5061,4.5049,4.5052,4.5058,4.5052,4.5055,4.5076,4.5065,4.4986,4.4974,4.4962,4.4954,4.5077,4.5077,4.5149,4.515,4.515]}]]